Weather History for Kiritimati, Kiribati

Change the Weather History Date:

Tuesday, February 12, 2013

  Actual Average Record
Temperature  
Mean Temperature 80 °F -  
Max Temperature 84 °F - - ()
Min Temperature 77 °F - - ()
Cooling Degree Days 16    
Growing Degree Days 30 (Base 50)    
Moisture  
Dew Point 76 °F    
Average Humidity 85    
Maximum Humidity 94    
Minimum Humidity 74    
Precipitation  
Precipitation 0.20 in - - ()
Sea Level Pressure  
Sea Level Pressure 29.84 in    
Wind  
Wind Speed 9 mph ()    
Max Wind Speed 18 mph    
Max Gust Speed -    
Visibility 7.8 miles    
Events Rain    
T = Trace of Precipitation, MM = Missing Value Source: Averaged Metar Reports

Daily Weather History Graph

Daily Weather History Graph

Search for Another Location

Airport:

Trip Planner

Search our weather history database for the weather conditions in past years. The results will help you decide how hot, cold, wet, or windy it might be!

Date:

Astronomy

Feb. 13, 2013 Rise Set
Actual Time 6:42 AM LINT 6:45 PM LINT
Civil Twilight 6:20 AM LINT 7:06 PM LINT
Nautical Twilight 5:56 AM LINT 7:31 PM LINT
Astronomical Twilight 5:31 AM LINT 7:55 PM LINT
Moon 7:48 AM LINT (2/12) 8:11 PM LINT (2/12)
Length of Visible Light 12h 45m
Length of Day
12h 03m
Waxing Crescent, 3% of the Moon is Illuminated
Feb 12
Waxing Crescent
Feb 18
First Quarter
Feb 26
Full
Mar 5
Last Quarter
Mar 12
New

Hourly Weather History & Observations

Time (LINT) Temp. Heat Index Dew Point Humidity Pressure Visibility Wind Dir Wind Speed Gust Speed Precip Events Conditions
12:00 AM 78.8 °F - 75.2 °F 89% 29.89 in 31.1 mi ESE 6.9 mph - N/A   Partly Cloudy
1:00 AM 78.8 °F - 75.2 °F 89% 29.86 in 31.1 mi ESE 4.6 mph - N/A   Partly Cloudy
2:00 AM 77 °F - 75 °F 92% 29.86 in 31 mi ESE 4.6 mph - -   Partly Cloudy
2:00 AM 77.0 °F - 75.2 °F 94% 29.86 in 31.1 mi ESE 4.6 mph - N/A   Partly Cloudy
3:00 AM 78.8 °F - 75.2 °F 89% 29.83 in 31.1 mi ESE 6.9 mph - N/A   Scattered Clouds
4:00 AM 78.8 °F - 75.2 °F 89% 29.83 in 31.1 mi East 13.8 mph - N/A   Scattered Clouds
5:00 AM 78.8 °F - 75.2 °F 89% 29.86 in 31.1 mi SE 13.8 mph - N/A   Partly Cloudy
6:00 AM 78.8 °F - 75.2 °F 89% 29.86 in 31.1 mi ESE 6.9 mph - N/A   Scattered Clouds
7:00 AM 80.6 °F 86.2 °F 75.2 °F 84% 29.89 in 31.1 mi East 9.2 mph - N/A   Partly Cloudy
8:00 AM 79 °F - 75 °F 85% 29.90 in 31 mi ESE 6.9 mph - -   Partly Cloudy
8:00 AM 78.8 °F - 75.2 °F 89% 29.89 in 31.1 mi ESE 6.9 mph - N/A   Scattered Clouds
10:00 AM 82.4 °F 89.5 °F 75.2 °F 79% 29.89 in 31.1 mi East 11.5 mph - N/A   Scattered Clouds
11:00 AM 84.2 °F 92.3 °F 75.2 °F 74% 29.86 in 31.1 mi East 16.1 mph - N/A   Partly Cloudy
1:00 PM 84.2 °F 92.3 °F 75.2 °F 74% 29.83 in 6.2 mi East 16.1 mph - N/A   Scattered Clouds
2:00 PM 84 °F - 77 °F 74% 29.78 in 31 mi East 16.1 mph - -   Partly Cloudy
2:00 PM 84.2 °F 94.1 °F 77.0 °F 79% 29.77 in 6.2 mi East 16.1 mph - N/A   Partly Cloudy
3:00 PM 84.2 °F 94.1 °F 77.0 °F 79% 29.77 in 6.2 mi East 16.1 mph - N/A   Partly Cloudy
4:00 PM 84.2 °F 94.1 °F 77.0 °F 79% 29.77 in 6.2 mi East 18.4 mph - N/A   Scattered Clouds
5:00 PM 82.4 °F 89.5 °F 75.2 °F 79% 29.77 in 6.2 mi East 16.1 mph - N/A   Scattered Clouds
6:00 PM 82.4 °F 89.5 °F 75.2 °F 79% 29.80 in 6.2 mi East 16.1 mph - N/A   Scattered Clouds
7:00 PM 80.6 °F 86.2 °F 75.2 °F 84% 29.80 in 6.2 mi East 13.8 mph - N/A   Mostly Cloudy
8:00 PM 78.8 °F - 77.0 °F 94% 29.83 in 31.1 mi East 11.5 mph - N/A   Scattered Clouds
9:00 PM 78.8 °F - 77.0 °F 94% 29.86 in 31.1 mi East 13.8 mph - N/A   Scattered Clouds
10:00 PM 78.8 °F - 77.0 °F 94% 29.86 in 31.1 mi East 11.5 mph - N/A   Scattered Clouds
11:00 PM 78.8 °F - 75.2 °F 89% 29.86 in 18.6 mi ESE 11.5 mph - N/A Rain Light Rain Showers